RADUGA 6 [-]

Last updated on Nov. 18, 2019, 4:21 a.m. UTC

1 11708U 80016A   19320.90785816  .00000134  00000-0  00000-0 0  9999
2 11708  11.2983 313.4580 0001624 302.9691 168.4526  1.00256909 98056
UTC
Height (km)
Latitude
Longitude
Inclination
Orbital Period
UTC large
Height (km)
Speed (km/s)
/
Latitude / Longitude
Inclination (degrees)
Orbital Period (minutes)
Azimuth
Elevation
Range (km)
Doppler Factor
iOS Compass Heading
iOS Angle

Next 30 passes for location: Hong Kong

Rise time Rise Azimuth (degrees) Set time Set Azimuth (degrees) Duration Max altitude (degrees)

No matching passes for this satellites